| time (UTC) | temp F | wind direction | speed knots | gust knots | rain 1hr in | rain 24hr in | rain mn in | humidity % | barometer mb |
| 20260504010116 | 79 | 130 | 3.5 | 13.0 | 0.00 | 0.00 | 0.00 | 6 | 1010.5 |
| 20260504005611 | 80 | 56 | 4.3 | 15.6 | 0.00 | 0.00 | 0.00 | 6 | 1010.5 |
| 20260504005104 | 80 | 248 | 5.2 | 15.6 | 0.00 | 0.00 | 0.00 | 5 | 1010.3 |
| 20260504004558 | 80 | 212 | 5.2 | 18.2 | 0.00 | 0.00 | 0.00 | 5 | 1010.5 |
| 20260504004053 | 80 | 179 | 7.0 | 18.2 | 0.00 | 0.00 | 0.00 | 5 | 1010.5 |
| 20260504003546 | 79 | 193 | 6.1 | 15.6 | 0.00 | 0.00 | 0.00 | 5 | 1010.5 |
| 20260504003044 | 79 | 191 | 5.2 | 16.5 | 0.00 | 0.00 | 0.00 | 5 | 1010.5 |
| 20260504002535 | 79 | 134 | 5.2 | 16.5 | 0.00 | 0.00 | 0.00 | 5 | 1010.5 |
| 20260504002028 | 78 | 188 | 5.2 | 13.0 | 0.00 | 0.00 | 0.00 | 5 | 1010.5 |
| 20260504001523 | 78 | 239 | 5.2 | 11.3 | 0.00 | 0.00 | 0.00 | 5 | 1010.8 |
| 20260504001016 | 77 | 208 | 4.3 | 15.6 | 0.00 | 0.00 | 0.00 | 6 | 1010.5 |
| 20260504000510 | 77 | 218 | 4.3 | 13.0 | 0.00 | 0.00 | 0.00 | 5 | 1010.5 |
| 20260503235459 | 77 | 182 | 4.3 | 15.6 | 0.00 | 0.00 | 0.00 | 5 | 1010.7 |
| 20260503234953 | 77 | 216 | 3.5 | 15.6 | 0.00 | 0.00 | 0.00 | 5 | 1010.5 |
| 20260503234447 | 76 | 201 | 5.2 | 15.6 | 0.00 | 0.00 | 0.00 | 5 | 1010.8 |
| 20260503233943 | 77 | 193 | 5.2 | 13.0 | 0.00 | 0.00 | 0.00 | 4 | 1010.5 |
| 20260503233441 | 77 | 218 | 6.1 | 13.0 | 0.00 | 0.00 | 0.00 | 4 | 1010.8 |
| 20260503231941 | 80 | 158 | 7.8 | 17.4 | 0.00 | 0.00 | 0.00 | 4 | 1010.7 |
| 20260503231441 | 79 | 193 | 7.8 | 20.9 | 0.00 | 0.00 | 0.00 | 4 | 1010.7 |
| 20260503230944 | 80 | 244 | 7.8 | 20.9 | 0.00 | 0.00 | 0.00 | 4 | 1010.8 |
| 20260503230442 | 80 | 53 | 8.7 | 16.5 | 0.00 | 0.00 | 0.00 | 4 | 1010.9 |
| 20260503225941 | 80 | 129 | 7.0 | 16.5 | 0.00 | 0.00 | 0.00 | 4 | 1011.0 |
| 20260503225443 | 80 | 183 | 6.1 | 18.2 | 0.00 | 0.00 | 0.00 | 3 | 1010.9 |
| 20260503224939 | 80 | 168 | 7.0 | 18.2 | 0.00 | 0.00 | 0.00 | 4 | 1010.8 |
| 20260503224440 | 80 | 137 | 7.0 | 16.5 | 0.00 | 0.00 | 0.00 | 4 | 1010.9 |
| 20260503223938 | 80 | 229 | 7.0 | 16.5 | 0.00 | 0.00 | 0.00 | 4 | 1011.0 |
| 20260503223437 | 80 | 143 | 6.1 | 15.6 | 0.00 | 0.00 | 0.00 | 4 | 1011.0 |
| 20260503222938 | 80 | 199 | 7.0 | 18.2 | 0.00 | 0.00 | 0.00 | 4 | 1011.0 |
| 20260503222439 | 80 | 293 | 7.0 | 18.2 | 0.00 | 0.00 | 0.00 | 5 | 1011.1 |
| 20260503221935 | 81 | 140 | 5.2 | 16.5 | 0.00 | 0.00 | 0.00 | 7 | 1010.9 |
| 20260503221434 | 80 | 266 | 6.1 | 16.5 | 0.00 | 0.00 | 0.00 | 8 | 1011.2 |
| 20260503220929 | 80 | 204 | 5.2 | 15.6 | 0.00 | 0.00 | 0.00 | 8 | 1011.1 |
| 20260503215917 | 80 | 208 | 7.0 | 17.4 | 0.00 | 0.00 | 0.00 | 10 | 1011.3 |
| 20260503215410 | 81 | 291 | 7.8 | 15.6 | 0.00 | 0.00 | 0.00 | 9 | 1011.5 |
| 20260503214905 | 80 | 214 | 8.7 | 17.4 | 0.00 | 0.00 | 0.00 | 10 | 1011.6 |
| 20260503214404 | 80 | 46 | 6.1 | 17.4 | 0.00 | 0.00 | 0.00 | 10 | 1011.6 |
| 20260503213854 | 81 | 89 | 4.3 | 13.0 | 0.00 | 0.00 | 0.00 | 10 | 1011.7 |
| 20260503213349 | 80 | 265 | 5.2 | 15.6 | 0.00 | 0.00 | 0.00 | 10 | 1011.7 |
| 20260503212840 | 80 | 230 | 5.2 | 15.6 | 0.00 | 0.00 | 0.00 | 10 | 1011.8 |
| 20260503212335 | 81 | 257 | 5.2 | 14.8 | 0.00 | 0.00 | 0.00 | 10 | 1011.8 |
| 20260503211837 | 81 | 217 | 6.1 | 19.1 | 0.00 | 0.00 | 0.00 | 10 | 1011.9 |
| 20260503211331 | 80 | 247 | 7.0 | 19.1 | 0.00 | 0.00 | 0.00 | 11 | 1011.9 |
| 20260503210831 | 81 | 146 | 6.1 | 13.9 | 0.00 | 0.00 | 0.00 | 9 | 1012.3 |
| 20260503210331 | 80 | 161 | 7.0 | 17.4 | 0.00 | 0.00 | 0.00 | 9 | 1012.4 |
| 20260503205830 | 80 | 169 | 7.0 | 17.4 | 0.00 | 0.00 | 0.00 | 10 | 1012.3 |
| 20260503205327 | 80 | 179 | 5.2 | 17.4 | 0.00 | 0.00 | 0.00 | 10 | 1012.3 |
| 20260503204829 | 80 | 224 | 5.2 | 21.7 | 0.00 | 0.00 | 0.00 | 10 | 1012.6 |
| 20260503204328 | 79 | 118 | 6.1 | 21.7 | 0.00 | 0.00 | 0.00 | 10 | 1012.8 |
| 20260503202827 | 80 | 96 | 7.0 | 18.2 | 0.00 | 0.00 | 0.00 | 10 | 1012.8 |
| 20260503202327 | 80 | 92 | 6.1 | 18.2 | 0.00 | 0.00 | 0.00 | 11 | 1013.0 |
| 20260503201827 | 80 | 190 | 7.0 | 17.4 | 0.00 | 0.00 | 0.00 | 10 | 1013.2 |
| 20260503201334 | 80 | 158 | 6.1 | 23.5 | 0.00 | 0.00 | 0.00 | 11 | 1013.0 |
| 20260503200831 | 80 | 251 | 5.2 | 23.5 | 0.00 | 0.00 | 0.00 | 10 | 1013.2 |
| 20260503200329 | 80 | 168 | 3.5 | 13.0 | 0.00 | 0.00 | 0.00 | 12 | 1013.2 |
| 20260503195830 | 79 | 146 | 4.3 | 16.5 | 0.00 | 0.00 | 0.00 | 13 | 1013.4 |
| 20260503195327 | 78 | 49 | 6.1 | 20.0 | 0.00 | 0.00 | 0.00 | 13 | 1013.4 |
| 20260503194827 | 78 | 265 | 6.1 | 20.0 | 0.00 | 0.00 | 0.00 | 13 | 1013.4 |
| 20260503194329 | 80 | 175 | 6.1 | 14.8 | 0.00 | 0.00 | 0.00 | 12 | 1013.6 |
| 20260503193327 | 80 | 258 | 7.0 | 20.9 | 0.00 | 0.00 | 0.00 | 11 | 1013.7 |
| 20260503192327 | 80 | 203 | 4.3 | 12.2 | 0.00 | 0.00 | 0.00 | 13 | 1013.7 |
| 20260503191829 | 80 | 91 | 4.3 | 18.2 | 0.00 | 0.00 | 0.00 | 12 | 1013.8 |
| 20260503191326 | 79 | 163 | 6.1 | 18.2 | 0.00 | 0.00 | 0.00 | 12 | 1014.1 |
| 20260503190826 | 79 | 180 | 5.2 | 13.9 | 0.00 | 0.00 | 0.00 | 11 | 1014.1 |
| 20260503190327 | 80 | 173 | 5.2 | 15.6 | 0.00 | 0.00 | 0.00 | 11 | 1014.2 |
| 20260503185326 | 79 | 240 | 3.5 | 13.9 | 0.00 | 0.00 | 0.00 | 12 | 1014.2 |
| 20260503184829 | 80 | 202 | 4.3 | 11.3 | 0.00 | 0.00 | 0.00 | 12 | 1014.2 |
| 20260503184327 | 80 | 261 | 4.3 | 16.5 | 0.00 | 0.00 | 0.00 | 11 | 1014.4 |
| 20260503183827 | 79 | 142 | 4.3 | 16.5 | 0.00 | 0.00 | 0.00 | 11 | 1014.4 |
| 20260503183329 | 78 | 113 | 5.2 | 20.0 | 0.00 | 0.00 | 0.00 | 13 | 1014.5 |
| 20260503182827 | 78 | 56 | 6.1 | 20.0 | 0.00 | 0.00 | 0.00 | 13 | 1014.5 |
| 20260503182328 | 78 | 72 | 4.3 | 16.5 | 0.00 | 0.00 | 0.00 | 13 | 1014.5 |
| 20260503181826 | 78 | 182 | 4.3 | 9.6 | 0.00 | 0.00 | 0.00 | 12 | 1014.4 |
| 20260503181327 | 79 | 107 | 4.3 | 9.6 | 0.00 | 0.00 | 0.00 | 11 | 1014.5 |
| 20260503180826 | 79 | 173 | 3.5 | 9.6 | 0.00 | 0.00 | 0.00 | 11 | 1014.5 |
| 20260503180324 | 79 | 1 | 3.5 | 11.3 | 0.00 | 0.00 | 0.00 | 11 | 1014.5 |
| 20260503175322 | 78 | 179 | 3.5 | 12.2 | 0.00 | 0.00 | 0.00 | 11 | 1014.8 |
| 20260503174314 | 79 | 195 | 2.6 | 13.0 | 0.00 | 0.00 | 0.00 | 11 | 1014.6 |
| 20260503173811 | 78 | 147 | 2.6 | 8.7 | 0.00 | 0.00 | 0.00 | 11 | 1014.9 |
| 20260503172309 | 77 | 193 | 4.3 | 16.5 | 0.00 | 0.00 | 0.00 | 11 | 1015.0 |
| 20260503171806 | 77 | 121 | 4.3 | 10.4 | 0.00 | 0.00 | 0.00 | 12 | 1015.1 |
| 20260503171306 | 77 | 67 | 4.3 | 11.3 | 0.00 | 0.00 | 0.00 | 11 | 1015.1 |
| 20260503170806 | 76 | 86 | 3.5 | 11.3 | 0.00 | 0.00 | 0.00 | 12 | 1015.1 |
| 20260503150622 | 70 | 89 | 4.3 | 10.4 | 0.00 | 0.00 | 0.00 | 12 | 1015.9 |
| 20260503150116 | 70 | 107 | 5.2 | 11.3 | 0.00 | 0.00 | 0.00 | 12 | 1015.8 |
| 20260503131409 | 63 | 148 | 2.6 | 4.3 | 0.00 | 0.00 | 0.00 | 16 | 1015.1 |
| 20260503130903 | 62 | 157 | 2.6 | 5.2 | 0.00 | 0.00 | 0.00 | 16 | 1015.0 |
| 20260503130358 | 62 | 165 | 2.6 | 5.2 | 0.00 | 0.00 | 0.00 | 16 | 1015.0 |
| 20260503110750 | 61 | 186 | 2.6 | 4.3 | 0.00 | 0.00 | 0.00 | 14 | 1015.4 |
| 20260503110245 | 62 | 173 | 1.7 | 3.5 | 0.00 | 0.00 | 0.00 | 14 | 1015.6 |
| 20260503090207 | 63 | 187 | 2.6 | 3.5 | 0.00 | 0.00 | 0.00 | 8 | 1015.6 |
| 20260503081206 | 58 | 180 | 1.7 | 2.6 | 0.00 | 0.00 | 0.00 | 10 | 1016.2 |
| 20260503080707 | 58 | 181 | 0.9 | 1.7 | 0.00 | 0.00 | 0.00 | 11 | 1016.4 |
| 20260503080205 | 58 | 171 | 0.9 | 1.7 | 0.00 | 0.00 | 0.00 | 11 | 1016.4 |
| 20260503072706 | 60 | 203 | 1.7 | 2.6 | 0.00 | 0.00 | 0.00 | 9 | 1016.6 |
| 20260503071703 | 60 | 175 | 1.7 | 2.6 | 0.00 | 0.00 | 0.00 | 9 | 1016.6 |
| 20260503071201 | 59 | 175 | 0.9 | 2.6 | 0.00 | 0.00 | 0.00 | 10 | 1016.7 |
| 20260503070702 | 58 | 193 | 0.0 | 1.7 | 0.00 | 0.00 | 0.00 | 10 | 1016.6 |
| 20260503060115 | 64 | 221 | 0.9 | 4.3 | 0.00 | 0.00 | 0.00 | 7 | 1016.6 |
| 20260503054612 | 65 | 176 | 1.7 | 3.5 | 0.00 | 0.00 | 0.00 | 6 | 1016.6 |
| 20260503054112 | 64 | 160 | 1.7 | 3.5 | 0.00 | 0.00 | 0.00 | 7 | 1016.5 |
| 20260503053611 | 65 | 167 | 1.7 | 4.3 | 0.00 | 0.00 | 0.00 | 6 | 1016.5 |
| 20260503053111 | 65 | 195 | 1.7 | 4.3 | 0.00 | 0.00 | 0.00 | 6 | 1016.5 |
| 20260503052610 | 65 | 216 | 1.7 | 4.3 | 0.00 | 0.00 | 0.00 | 6 | 1016.6 |
| 20260503051615 | 65 | 195 | 2.6 | 4.3 | 0.00 | 0.00 | 0.00 | 6 | 1016.6 |
| 20260503050609 | 65 | 193 | 1.7 | 4.3 | 0.00 | 0.00 | 0.00 | 6 | 1016.5 |
| 20260503050112 | 65 | 207 | 1.7 | 4.3 | 0.00 | 0.00 | 0.00 | 6 | 1016.6 |
| 20260503045606 | 66 | 224 | 2.6 | 4.3 | 0.00 | 0.00 | 0.00 | 6 | 1016.6 |
| 20260503045110 | 66 | 229 | 2.6 | 5.2 | 0.00 | 0.00 | 0.00 | 6 | 1016.5 |
| 20260503044606 | 66 | 195 | 2.6 | 5.2 | 0.00 | 0.00 | 0.00 | 6 | 1016.5 |
| 20260503043600 | 66 | 198 | 1.7 | 4.3 | 0.00 | 0.00 | 0.00 | 6 | 1016.4 |
| 20260503043057 | 66 | 194 | 1.7 | 4.3 | 0.00 | 0.00 | 0.00 | 6 | 1016.4 |
| 20260503042551 | 66 | 195 | 1.7 | 3.5 | 0.00 | 0.00 | 0.00 | 6 | 1016.2 |
| 20260503042042 | 66 | 201 | 1.7 | 4.3 | 0.00 | 0.00 | 0.00 | 6 | 1016.2 |
| 20260503041536 | 67 | 205 | 1.7 | 4.3 | 0.00 | 0.00 | 0.00 | 5 | 1016.2 |
| 20260503041030 | 67 | 173 | 1.7 | 4.3 | 0.00 | 0.00 | 0.00 | 5 | 1016.0 |
| 20260503040524 | 67 | 199 | 1.7 | 5.2 | 0.00 | 0.00 | 0.00 | 5 | 1016.0 |
| 20260503035513 | 68 | 264 | 1.7 | 5.2 | 0.00 | 0.00 | 0.00 | 5 | 1015.9 |
| 20260503035006 | 69 | 225 | 2.6 | 5.2 | 0.00 | 0.00 | 0.00 | 5 | 1015.9 |
| 20260503033956 | 69 | 210 | 2.6 | 5.2 | 0.00 | 0.00 | 0.00 | 4 | 1015.8 |
| 20260503033448 | 69 | 215 | 1.7 | 5.2 | 0.00 | 0.00 | 0.00 | 4 | 1015.8 |
| 20260503032943 | 69 | 179 | 1.7 | 6.1 | 0.00 | 0.00 | 0.00 | 4 | 1015.8 |
| 20260503032441 | 69 | 232 | 1.7 | 6.1 | 0.00 | 0.00 | 0.00 | 4 | 1015.8 |
| 20260503031930 | 70 | 274 | 2.6 | 6.1 | 0.00 | 0.00 | 0.00 | 4 | 1015.6 |
| 20260503031427 | 70 | 266 | 2.6 | 6.1 | 0.00 | 0.00 | 0.00 | 4 | 1015.6 |
| 20260503025906 | 71 | 203 | 2.6 | 7.8 | 0.00 | 0.00 | 0.00 | 3 | 1015.4 |
| 20260503025400 | 71 | 214 | 2.6 | 7.8 | 0.00 | 0.00 | 0.00 | 3 | 1015.3 |
| 20260503024854 | 71 | 243 | 2.6 | 7.0 | 0.00 | 0.00 | 0.00 | 3 | 1015.3 |
| 20260503024348 | 71 | 253 | 1.7 | 7.0 | 0.00 | 0.00 | 0.00 | 3 | 1015.2 |
| 20260503023845 | 71 | 245 | 0.9 | 3.5 | 0.00 | 0.00 | 0.00 | 4 | 1015.1 |
| 20260503023337 | 71 | 260 | 1.7 | 5.2 | 0.00 | 0.00 | 0.00 | 4 | 1015.1 |
| 20260503022830 | 72 | 217 | 1.7 | 5.2 | 0.00 | 0.00 | 0.00 | 4 | 1015.1 |
| 20260503022325 | 72 | 217 | 2.6 | 9.6 | 0.00 | 0.00 | 0.00 | 4 | 1015.1 |
| 20260503021818 | 72 | 262 | 3.5 | 9.6 | 0.00 | 0.00 | 0.00 | 3 | 1015.1 |
| 20260503021312 | 73 | 284 | 3.5 | 8.7 | 0.00 | 0.00 | 0.00 | 3 | 1015.1 |
| 20260503020807 | 73 | 275 | 2.6 | 8.7 | 0.00 | 0.00 | 0.00 | 3 | 1015.1 |
| 20260503020301 | 73 | 195 | 1.7 | 7.0 | 0.00 | 0.00 | 0.00 | 3 | 1015.0 |
| 20260503015755 | 73 | 206 | 2.6 | 7.8 | 0.00 | 0.00 | 0.00 | 3 | 1014.9 |
| 20260503015248 | 73 | 243 | 2.6 | 7.8 | 0.00 | 0.00 | 0.00 | 3 | 1015.0 |
| 20260503014746 | 74 | 293 | 3.5 | 8.7 | 0.00 | 0.00 | 0.00 | 3 | 1014.9 |
| 20260503014239 | 74 | 188 | 3.5 | 8.7 | 0.00 | 0.00 | 0.00 | 3 | 1015.0 |
| 20260503013737 | 74 | 260 | 3.5 | 8.7 | 0.00 | 0.00 | 0.00 | 3 | 1014.9 |
| 20260503013235 | 74 | 248 | 4.3 | 8.7 | 0.00 | 0.00 | 0.00 | 3 | 1014.9 |
| 20260503012742 | 75 | 278 | 4.3 | 9.6 | 0.00 | 0.00 | 0.00 | 3 | 1014.9 |
| 20260503012235 | 76 | 193 | 3.5 | 9.6 | 0.00 | 0.00 | 0.00 | 3 | 1014.8 |
| 20260503011733 | 76 | 244 | 1.7 | 7.8 | 0.00 | 0.00 | 0.00 | 2 | 1014.6 |
| 20260503011235 | 77 | 243 | 2.6 | 8.7 | 0.00 | 0.00 | 0.00 | 2 | 1014.6 |
| 20260503010733 | 77 | 235 | 2.6 | 8.7 | 0.00 | 0.00 | 0.00 | 3 | 1014.6 |